Home   Weather   Parma   Past weeks

Flag for Italy Past Weather in Parma, Italy — Yesterday and Last 2 Weeks

Now
54 °F

Sunny.


Feels Like: 53 °F
Forecast: 52 / 67 °F
Wind: 5 mph from North

Location: Parma

Current Time: Apr 23, 2017 at 10:03:34 am

Latest Report: Apr 23, 2017 at 8:50 am


Visibility: 10 mi

Pressure: 30.04 "Hg

Humidity: 72%

Dew Point: 45 °F

Location of ParmaLocation

Past Weather in Parma — Graph

°F

Parma Temperature Yesterday

Maximum temperature yesterday: 72 °F (at 5:50 pm)
Minimum temperature yesterday: 39 °F (at 7:00 am)
Average temperature yesterday: 60 °F

High & Low Weather Summary for the Past Weeks

 TemperatureHumidityPressure
High77 °F (Apr 10, 4:50 pm)100% (Apr 10, 7:00 am)30.42 "Hg (Apr 10, 7:00 am)
Low32 °F (Apr 20, 7:00 am)13% (Apr 20, 3:50 pm)29.77 "Hg (Apr 13, 4:50 pm)
Average60 °F58%30.05 "Hg
* Reported Apr 8 7:00 am — Apr 23 7:50 am, Parma, Weather by CustomWeather, © 2017

Note: Actual official high and low records may vary slightly from our data, if they occured in-between our weather recording intervals... More about our weather records

Advertising

Parma Weather History for the Previous 24 Hours

Scroll right to see more
 ConditionsComfort  
Time TempWeatherWind HumidityBarometerVisibility
7:50 am
Sun, Apr 23
48 °FSunny.No wind82%30.01 "Hg10 mi
7:00 am43 °FSunny.1 mph87%30.01 "Hg10 mi
12:50 am57 °FClear.17 mph63%30.01 "Hg10 mi
11:50 pm
Sat, Apr 22
59 °FClear.18 mph59%30.01 "Hg10 mi
10:50 pm59 °FClear.21 mph59%29.98 "Hg10 mi
9:50 pm59 °FClear.22 mph51%29.98 "Hg10 mi
7:50 pm64 °FSunny.20 mph40%29.95 "Hg10 mi
6:50 pm68 °FSunny.17 mph38%29.98 "Hg10 mi
5:50 pm72 °FSunny.13 mph36%29.98 "Hg10 mi
4:50 pm70 °FSunny.5 mph35%30.01 "Hg10 mi
3:50 pm70 °FSunny.6 mph33%30.04 "Hg10 mi
2:50 pm68 °FSunny.3 mph38%30.07 "Hg10 mi
1:50 pm66 °FSunny.3 mph37%30.09 "Hg10 mi
12:50 pm63 °FSunny.3 mph34%30.15 "Hg10 mi
11:50 am61 °FSunny.5 mph39%30.18 "Hg10 mi
10:50 am57 °FSunny.3 mph48%30.21 "Hg10 mi
Weather by CustomWeather, © 2017

See weather overviewHow to use our weather pages